JILIN-01 GAOFEN 3D 4 (52389 NORAD) Tracking and Keplerian Element Data

This shows tracking and keplerian element data for the satellite.

Feedback or suggestion? Click here.




ElementValue
Catalog52389
NameJILIN-01 GAOFEN 3D 4
Epoch Orbit706
Epoch Day166.99654145
Epoch Year2022
RAAN254.3758
Inclination97.5419
Eccentricity0.0013952
Argument of Perigee132.5771
Mean Anonmoly341.9965
Mean Motion15.10246361
Decay Rate3.818E-05
L11 52389U 22046B 22166.99654145 .00003818 00000+0 23683-3 0 9995
L22 52389 97.5419 254.3758 0013952 132.5771 341.9965 15.10246361 7063

Live tracking and technical data element details for JILIN-01 GAOFEN 3D 4 (NORAD 52389). JILIN-01 GAOFEN 3D 4 can be tracked NOW for your location showing map with azimuth and elevation plus other details from your city location.

Track the satellite on the map from your city or location and see movement details for azimuth, elevation, latitude, longitude, range, height, and movement on the map or in text.







IsCatalogInMostPopularTable: catalog: 52389, numindb: 7
Update: records affected: 1



GetName: 52389 JILIN-01 GAOFEN 3D 4

Hit Count: updated at: Mon, 27 Jun 2022 06:28:59 GMT